| time (UTC) | temp C | wind direction | speed KPH | gust KPH | rain 1hr cm | rain 24hr cm | rain mn cm | humidity % | barometer mb |
| 20260508210332 | 10 | 62 | 0.0 | 3.2 | 0.00 | 2.01 | 0.00 | 76 | 1012.8 |
| 20260508205831 | 10 | 338 | 1.6 | 3.2 | 0.00 | 2.01 | 0.00 | 76 | 1012.6 |
| 20260508205349 | 10 | 34 | 0.0 | 1.6 | 0.00 | 2.01 | 0.00 | 75 | 1012.5 |
| 20260508204828 | 9 | 34 | 0.0 | 3.2 | 0.00 | 2.01 | 0.00 | 78 | 1012.3 |
| 20260508204347 | 8 | 34 | 0.0 | 3.2 | 0.00 | 2.01 | 0.00 | 80 | 1012.2 |
| 20260508203824 | 8 | 93 | 0.0 | 4.8 | 0.00 | 2.01 | 0.00 | 84 | 1012.2 |
| 20260508203323 | 7 | 171 | 1.6 | 4.8 | 0.00 | 2.01 | 0.00 | 85 | 1012.2 |
| 20260508202825 | 7 | 208 | 0.0 | 1.6 | 0.00 | 2.01 | 0.00 | 85 | 1012.0 |
| 20260508202323 | 7 | 208 | 0.0 | 9.7 | 0.00 | 2.01 | 0.00 | 85 | 1012.0 |
| 20260508201821 | 7 | 42 | 1.6 | 12.9 | 0.00 | 2.01 | 0.00 | 85 | 1011.8 |
| 20260508201319 | 7 | 98 | 3.2 | 6.4 | 0.00 | 2.01 | 0.00 | 84 | 1011.8 |
| 20260508200839 | 7 | 31 | 0.0 | 4.8 | 0.00 | 2.01 | 0.00 | 82 | 1011.6 |
| 20260508200339 | 7 | 349 | 3.2 | 4.8 | 0.00 | 2.01 | 0.00 | 81 | 1011.5 |
| 20260508195816 | 7 | 248 | 0.0 | 0.0 | 0.00 | 2.01 | 0.00 | 81 | 1011.4 |
| 20260508195335 | 7 | 247 | 0.0 | 0.0 | 0.00 | 2.01 | 0.00 | 81 | 1011.3 |
| 20260508194833 | 7 | 243 | 0.0 | 4.8 | 0.00 | 2.01 | 0.00 | 81 | 1011.1 |
| 20260508194353 | 7 | 243 | 0.0 | 4.8 | 0.00 | 2.01 | 0.00 | 81 | 1011.2 |
| 20260508193831 | 7 | 54 | 0.0 | 1.6 | 0.00 | 2.01 | 0.00 | 81 | 1011.0 |
| 20260508193330 | 7 | 55 | 0.0 | 9.7 | 0.00 | 2.01 | 0.00 | 81 | 1011.1 |
| 20260508192829 | 7 | 54 | 3.2 | 9.7 | 0.00 | 2.01 | 0.00 | 80 | 1011.0 |
| 20260508192349 | 7 | 64 | 1.6 | 3.2 | 0.00 | 2.01 | 0.00 | 78 | 1011.0 |
| 20260508191827 | 7 | 213 | 0.0 | 0.0 | 0.00 | 2.01 | 0.00 | 77 | 1010.8 |
| 20260508191346 | 7 | 213 | 0.0 | 0.0 | 0.00 | 2.01 | 0.00 | 77 | 1010.9 |
| 20260508190823 | 8 | 212 | 0.0 | 4.8 | 0.00 | 2.01 | 0.00 | 76 | 1010.7 |
| 20260508190321 | 8 | 212 | 0.0 | 6.4 | 0.00 | 2.01 | 0.00 | 75 | 1010.5 |
| 20260508185818 | 8 | 228 | 1.6 | 8.0 | 0.00 | 2.01 | 0.00 | 75 | 1010.6 |
| 20260508185317 | 8 | 348 | 4.8 | 9.7 | 0.00 | 2.01 | 0.00 | 74 | 1010.4 |
| 20260508184835 | 8 | 75 | 4.8 | 9.7 | 0.00 | 2.01 | 0.00 | 74 | 1010.3 |
| 20260508184312 | 8 | 45 | 1.6 | 1.6 | 0.00 | 2.01 | 0.00 | 76 | 1010.1 |
| 20260508183854 | 8 | 16 | 0.0 | 1.6 | 0.00 | 2.01 | 0.00 | 75 | 1010.1 |
| 20260508183315 | 8 | 33 | 0.0 | 1.6 | 0.00 | 2.01 | 0.00 | 74 | 1010.0 |
| 20260508182814 | 8 | 52 | 0.0 | 3.2 | 0.00 | 2.01 | 0.00 | 74 | 1009.9 |
| 20260508182333 | 8 | 52 | 1.6 | 3.2 | 0.00 | 2.01 | 0.00 | 75 | 1010.0 |
| 20260508181833 | 8 | 52 | 1.6 | 3.2 | 0.00 | 2.01 | 0.00 | 75 | 1010.1 |
| 20260508181331 | 8 | 32 | 0.0 | 0.0 | 0.00 | 2.01 | 0.00 | 73 | 1010.1 |
| 20260508180828 | 8 | 32 | 0.0 | 1.6 | 0.00 | 2.01 | 0.00 | 72 | 1010.1 |
| 20260508180326 | 9 | 32 | 0.0 | 3.2 | 0.00 | 2.01 | 0.00 | 72 | 1010.1 |
| 20260508175824 | 9 | 38 | 0.0 | 6.4 | 0.00 | 2.01 | 0.00 | 70 | 1010.1 |
| 20260508175323 | 9 | 61 | 1.6 | 6.4 | 0.00 | 2.01 | 0.00 | 71 | 1009.9 |
| 20260508174822 | 9 | 71 | 0.0 | 4.8 | 0.00 | 2.01 | 0.00 | 70 | 1010.0 |
| 20260508174342 | 10 | 319 | 1.6 | 4.8 | 0.00 | 2.01 | 0.00 | 68 | 1010.0 |
| 20260508173821 | 10 | 217 | 0.0 | 3.2 | 0.00 | 2.01 | 0.00 | 66 | 1010.0 |
| 20260508173319 | 9 | 12 | 0.0 | 1.6 | 0.00 | 2.01 | 0.00 | 67 | 1009.9 |
| 20260508172817 | 9 | 18 | 0.0 | 1.6 | 0.00 | 2.01 | 0.00 | 68 | 1009.8 |
| 20260508172315 | 9 | 36 | 0.0 | 3.2 | 0.00 | 2.01 | 0.00 | 69 | 1009.9 |
| 20260508171814 | 9 | 210 | 0.0 | 3.2 | 0.00 | 2.01 | 0.00 | 69 | 1010.0 |
| 20260508171313 | 9 | 56 | 0.0 | 3.2 | 0.00 | 2.01 | 0.00 | 70 | 1010.0 |
| 20260508170832 | 9 | 35 | 0.0 | 3.2 | 0.00 | 2.01 | 0.00 | 71 | 1010.1 |
| 20260508170351 | 9 | 290 | 0.0 | 6.4 | 0.00 | 2.01 | 0.00 | 71 | 1010.2 |
| 20260508165828 | 9 | 30 | 1.6 | 6.4 | 0.00 | 2.01 | 0.00 | 72 | 1010.2 |
| 20260508165327 | 9 | 338 | 1.6 | 6.4 | 0.00 | 2.01 | 0.00 | 74 | 1010.2 |
| 20260508164829 | 9 | 42 | 1.6 | 6.4 | 0.00 | 2.01 | 0.00 | 74 | 1010.2 |
| 20260508164326 | 9 | 24 | 1.6 | 6.4 | 0.00 | 2.01 | 0.00 | 75 | 1010.2 |
| 20260508163824 | 10 | 290 | 1.6 | 6.4 | 0.00 | 2.01 | 0.00 | 76 | 1010.2 |
| 20260508163323 | 9 | 69 | 0.0 | 3.2 | 0.00 | 2.01 | 0.00 | 76 | 1010.4 |
| 20260508162822 | 9 | 358 | 0.0 | 1.6 | 0.00 | 2.01 | 0.00 | 76 | 1010.4 |
| 20260508162321 | 9 | 20 | 0.0 | 1.6 | 0.00 | 2.01 | 0.00 | 79 | 1010.5 |
| 20260508161820 | 9 | 20 | 0.0 | 1.6 | 0.00 | 2.01 | 0.00 | 80 | 1010.6 |
| 20260508161319 | 9 | 20 | 0.0 | 1.6 | 0.00 | 2.01 | 0.00 | 82 | 1010.5 |
| 20260508160818 | 9 | 230 | 0.0 | 3.2 | 0.00 | 2.01 | 0.00 | 84 | 1010.5 |
| 20260508160317 | 9 | 207 | 0.0 | 3.2 | 0.00 | 2.01 | 0.00 | 87 | 1010.6 |
| 20260508155814 | 10 | 75 | 0.0 | 1.6 | 0.00 | 2.01 | 0.00 | 87 | 1010.6 |
| 20260508155312 | 10 | 75 | 0.0 | 1.6 | 0.00 | 2.01 | 0.00 | 88 | 1010.8 |
| 20260508154832 | 10 | 75 | 0.0 | 1.6 | 0.00 | 2.01 | 0.00 | 88 | 1010.9 |
| 20260508154330 | 10 | 75 | 0.0 | 3.2 | 0.00 | 2.01 | 0.00 | 88 | 1011.1 |
| 20260508153828 | 10 | 82 | 1.6 | 1.6 | 0.00 | 2.01 | 0.00 | 88 | 1011.1 |
| 20260508153349 | 10 | 165 | 0.0 | 0.0 | 0.00 | 2.01 | 0.00 | 88 | 1011.1 |
| 20260508152845 | 11 | 165 | 0.0 | 1.6 | 0.00 | 2.01 | 0.00 | 87 | 1011.1 |
| 20260508152326 | 11 | 66 | 0.0 | 3.2 | 0.00 | 2.01 | 0.00 | 87 | 1011.1 |
| 20260508151845 | 11 | 65 | 0.0 | 3.2 | 0.00 | 2.01 | 0.41 | 87 | 1011.0 |
| 20260508151322 | 11 | 58 | 0.0 | 3.2 | 0.00 | 2.01 | 0.41 | 87 | 1011.1 |
| 20260508150820 | 11 | 59 | 3.2 | 4.8 | 0.00 | 2.01 | 0.41 | 87 | 1011.3 |
| 20260508150339 | 11 | 212 | 0.0 | 8.0 | 0.00 | 2.01 | 0.41 | 87 | 1011.3 |
| 20260508145816 | 11 | 30 | 0.0 | 8.0 | 0.00 | 2.01 | 0.41 | 87 | 1011.2 |
| 20260508145314 | 11 | 242 | 0.0 | 0.0 | 0.00 | 2.01 | 0.41 | 87 | 1011.3 |
| 20260508144833 | 11 | 236 | 0.0 | 1.6 | 0.00 | 2.01 | 0.41 | 87 | 1011.1 |
| 20260508144353 | 11 | 248 | 0.0 | 1.6 | 0.00 | 2.01 | 0.41 | 87 | 1011.1 |
| 20260508143851 | 11 | 61 | 0.0 | 1.6 | 0.00 | 2.01 | 0.41 | 86 | 1011.0 |
| 20260508143329 | 11 | 61 | 0.0 | 1.6 | 0.00 | 2.01 | 0.41 | 86 | 1011.1 |
| 20260508142847 | 12 | 61 | 0.0 | 6.4 | 0.00 | 2.01 | 0.41 | 85 | 1011.0 |
| 20260508142345 | 12 | 61 | 0.0 | 12.9 | 0.00 | 2.01 | 0.41 | 85 | 1010.8 |
| 20260508141822 | 12 | 30 | 3.2 | 14.5 | 0.00 | 2.01 | 0.41 | 84 | 1010.8 |
| 20260508141319 | 12 | 51 | 8.0 | 14.5 | 0.00 | 2.01 | 0.41 | 85 | 1010.8 |
| 20260508140817 | 12 | 8 | 3.2 | 14.5 | 0.00 | 2.01 | 0.41 | 84 | 1010.7 |
| 20260508140316 | 12 | 343 | 4.8 | 9.7 | 0.00 | 2.01 | 0.41 | 85 | 1010.7 |
| 20260508135816 | 12 | 236 | 1.6 | 4.8 | 0.00 | 2.01 | 0.41 | 85 | 1010.7 |
| 20260508135314 | 12 | 241 | 0.0 | 9.7 | 0.00 | 2.01 | 0.41 | 85 | 1010.6 |
| 20260508134833 | 12 | 53 | 1.6 | 9.7 | 0.00 | 2.01 | 0.41 | 85 | 1010.4 |
| 20260508134352 | 12 | 68 | 3.2 | 9.7 | 0.00 | 2.01 | 0.41 | 84 | 1010.3 |
| 20260508133829 | 12 | 46 | 1.6 | 4.8 | 0.00 | 2.01 | 0.41 | 84 | 1010.3 |
| 20260508133328 | 12 | 231 | 0.0 | 11.3 | 0.00 | 2.01 | 0.41 | 84 | 1010.3 |
| 20260508132826 | 12 | 43 | 3.2 | 11.3 | 0.00 | 2.01 | 0.41 | 84 | 1010.2 |
| 20260508132325 | 12 | 52 | 0.0 | 3.2 | 0.00 | 2.01 | 0.41 | 85 | 1010.2 |
| 20260508131828 | 12 | 52 | 0.0 | 8.0 | 0.00 | 2.01 | 0.41 | 84 | 1010.2 |
| 20260508131402 | 12 | 57 | 1.6 | 8.0 | 0.00 | 2.01 | 0.41 | 84 | 1010.1 |
| 20260508130815 | 12 | 33 | 3.2 | 11.3 | 0.00 | 2.01 | 0.41 | 85 | 1010.1 |
| 20260508130318 | 12 | 41 | 3.2 | 11.3 | 0.00 | 2.01 | 0.41 | 85 | 1010.2 |
| 20260508125816 | 12 | 26 | 3.2 | 8.0 | 0.00 | 2.01 | 0.41 | 85 | 1010.2 |
| 20260508125315 | 12 | 31 | 0.0 | 6.4 | 0.00 | 2.01 | 0.41 | 85 | 1010.2 |
| 20260508124815 | 12 | 65 | 3.2 | 9.7 | 0.00 | 2.01 | 0.41 | 84 | 1010.1 |
| 20260508124333 | 13 | 20 | 6.4 | 9.7 | 0.00 | 2.01 | 0.41 | 83 | 1010.1 |
| 20260508123853 | 13 | 37 | 3.2 | 8.0 | 0.00 | 2.01 | 0.41 | 83 | 1010.1 |
| 20260508123331 | 12 | 32 | 1.6 | 11.3 | 0.00 | 2.01 | 0.41 | 85 | 1009.9 |
| 20260508122829 | 12 | 42 | 4.8 | 11.3 | 0.10 | 2.01 | 0.41 | 87 | 1010.0 |
| 20260508122350 | 12 | 56 | 0.0 | 4.8 | 0.10 | 2.01 | 0.41 | 88 | 1009.9 |
| 20260508121827 | 12 | 227 | 0.0 | 6.4 | 0.20 | 2.01 | 0.41 | 89 | 1009.9 |
| 20260508121325 | 12 | 45 | 3.2 | 6.4 | 0.20 | 2.01 | 0.41 | 89 | 1009.9 |
| 20260508120822 | 12 | 60 | 3.2 | 6.4 | 0.20 | 2.01 | 0.41 | 89 | 1010.0 |
| 20260508120321 | 12 | 49 | 1.6 | 6.4 | 0.20 | 2.01 | 0.41 | 89 | 1010.0 |
| 20260508115820 | 12 | 20 | 1.6 | 9.7 | 0.20 | 2.01 | 0.41 | 88 | 1009.8 |
| 20260508115319 | 12 | 54 | 4.8 | 11.3 | 0.20 | 2.01 | 0.41 | 89 | 1009.6 |
| 20260508114837 | 13 | 24 | 4.8 | 17.7 | 0.20 | 2.01 | 0.41 | 89 | 1009.5 |
| 20260508114315 | 13 | 26 | 1.6 | 17.7 | 0.20 | 2.01 | 0.41 | 89 | 1009.6 |
| 20260508113813 | 13 | 69 | 3.2 | 14.5 | 0.30 | 2.01 | 0.41 | 89 | 1009.7 |
| 20260508113317 | 13 | 21 | 1.6 | 16.1 | 0.30 | 2.01 | 0.41 | 89 | 1009.7 |
| 20260508112815 | 13 | 23 | 6.4 | 16.1 | 0.20 | 1.91 | 0.38 | 89 | 1009.6 |
| 20260508112313 | 13 | 31 | 3.2 | 8.0 | 0.20 | 1.91 | 0.38 | 89 | 1009.6 |
| 20260508111812 | 13 | 311 | 0.0 | 1.6 | 0.10 | 1.80 | 0.36 | 89 | 1009.6 |
| 20260508111330 | 13 | 242 | 0.0 | 8.0 | 0.20 | 1.80 | 0.36 | 88 | 1009.5 |
| 20260508110828 | 13 | 34 | 1.6 | 8.0 | 0.30 | 1.80 | 0.36 | 88 | 1009.4 |
| 20260508110326 | 13 | 32 | 1.6 | 12.9 | 0.89 | 1.80 | 0.36 | 88 | 1009.1 |
| 20260508105826 | 14 | 36 | 6.4 | 12.9 | 1.30 | 1.80 | 0.36 | 88 | 1009.0 |
| 20260508105324 | 14 | 62 | 4.8 | 12.9 | 1.30 | 1.80 | 0.36 | 89 | 1009.0 |
| 20260508104823 | 14 | 51 | 3.2 | 17.7 | 1.40 | 1.80 | 0.36 | 89 | 1008.9 |
| 20260508104320 | 14 | 240 | 8.0 | 17.7 | 1.80 | 1.80 | 0.36 | 89 | 1008.9 |
| 20260508103819 | 14 | 49 | 4.8 | 9.7 | 1.70 | 1.70 | 0.33 | 90 | 1008.8 |
| 20260508103316 | 14 | 41 | 3.2 | 9.7 | 1.70 | 1.70 | 0.33 | 90 | 1008.9 |
| 20260508102815 | 13 | 49 | 4.8 | 19.3 | 1.70 | 1.70 | 0.33 | 90 | 1008.8 |
| 20260508102314 | 13 | 18 | 11.3 | 20.9 | 1.70 | 1.70 | 0.33 | 90 | 1008.7 |
| 20260508101831 | 13 | 40 | 6.4 | 17.7 | 1.70 | 1.70 | 0.33 | 91 | 1008.5 |
| 20260508101351 | 13 | 37 | 9.7 | 30.6 | 1.60 | 1.60 | 0.33 | 90 | 1008.4 |
| 20260508100826 | 13 | 40 | 14.5 | 30.6 | 1.50 | 1.50 | 0.30 | 89 | 1008.2 |
| 20260508100345 | 14 | 57 | 8.0 | 19.3 | 0.79 | 0.79 | 0.15 | 88 | 1008.3 |
| 20260508095823 | 15 | 172 | 11.3 | 27.4 | 0.51 | 0.51 | 0.10 | 87 | 1008.2 |
| 20260508095321 | 15 | 103 | 11.3 | 27.4 | 0.51 | 0.51 | 0.10 | 85 | 1007.8 |
| 20260508094819 | 15 | 13 | 11.3 | 22.5 | 0.41 | 0.41 | 0.08 | 82 | 1007.8 |
| 20260508094340 | 16 | 60 | 6.4 | 20.9 | 0.00 | 0.00 | 0.00 | 81 | 1007.8 |
| 20260508093816 | 16 | 64 | 8.0 | 17.7 | 0.00 | 0.00 | 0.00 | 80 | 1007.9 |
| 20260508093314 | 16 | 44 | 9.7 | 17.7 | 0.00 | 0.00 | 0.00 | 81 | 1007.8 |
| 20260508092817 | 16 | 79 | 8.0 | 20.9 | 0.00 | 0.00 | 0.00 | 82 | 1007.8 |
| 20260508092315 | 16 | 61 | 12.9 | 22.5 | 0.00 | 0.00 | 0.00 | 83 | 1007.7 |
| 20260508091813 | 16 | 26 | 8.0 | 24.1 | 0.00 | 0.00 | 0.00 | 83 | 1007.5 |
| 20260508091333 | 16 | 94 | 11.3 | 24.1 | 0.00 | 0.00 | 0.00 | 83 | 1007.4 |
| 20260508090832 | 16 | 24 | 9.7 | 20.9 | 0.00 | 0.00 | 0.00 | 82 | 1007.3 |
| 20260508090330 | 17 | 60 | 14.5 | 25.7 | 0.00 | 0.00 | 0.00 | 82 | 1007.3 |
| 20260508085827 | 17 | 94 | 12.9 | 25.7 | 0.00 | 0.00 | 0.00 | 82 | 1007.0 |
| 20260508085325 | 17 | 23 | 6.4 | 20.9 | 0.00 | 0.00 | 0.00 | 82 | 1007.1 |
| 20260508084844 | 17 | 44 | 9.7 | 20.9 | 0.00 | 0.00 | 0.00 | 82 | 1006.9 |
| 20260508084321 | 17 | 25 | 8.0 | 22.5 | 0.00 | 0.00 | 0.00 | 82 | 1006.9 |
| 20260508083820 | 17 | 25 | 11.3 | 22.5 | 0.00 | 0.00 | 0.00 | 82 | 1006.6 |
| 20260508083320 | 17 | 59 | 11.3 | 19.3 | 0.00 | 0.00 | 0.00 | 82 | 1006.8 |
| 20260508082819 | 17 | 75 | 6.4 | 16.1 | 0.00 | 0.00 | 0.00 | 81 | 1007.0 |
| 20260508082338 | 17 | 84 | 8.0 | 19.3 | 0.00 | 0.00 | 0.00 | 82 | 1006.7 |
| 20260508081817 | 17 | 37 | 9.7 | 19.3 | 0.00 | 0.00 | 0.00 | 82 | 1006.8 |
| 20260508081335 | 17 | 43 | 12.9 | 19.3 | 0.00 | 0.00 | 0.00 | 81 | 1006.9 |
| 20260508080812 | 17 | 53 | 9.7 | 19.3 | 0.00 | 0.00 | 0.00 | 81 | 1007.0 |
| 20260508080331 | 17 | 114 | 8.0 | 25.7 | 0.00 | 0.00 | 0.00 | 81 | 1007.1 |
| 20260508075849 | 17 | 49 | 9.7 | 25.7 | 0.00 | 0.00 | 0.00 | 80 | 1007.2 |
| 20260508075348 | 17 | 44 | 8.0 | 25.7 | 0.00 | 0.00 | 0.00 | 81 | 1007.4 |
| 20260508074827 | 17 | 46 | 11.3 | 20.9 | 0.00 | 0.00 | 0.00 | 81 | 1007.3 |
| 20260508074326 | 17 | 70 | 4.8 | 19.3 | 0.00 | 0.00 | 0.00 | 82 | 1007.2 |
| 20260508073823 | 17 | 38 | 6.4 | 19.3 | 0.00 | 0.00 | 0.00 | 81 | 1007.1 |
| 20260508073322 | 18 | 53 | 11.3 | 17.7 | 0.00 | 0.00 | 0.00 | 80 | 1007.1 |
| 20260508072820 | 18 | 79 | 8.0 | 14.5 | 0.00 | 0.00 | 0.00 | 80 | 1007.2 |
| 20260508072319 | 18 | 61 | 6.4 | 19.3 | 0.00 | 0.00 | 0.00 | 80 | 1007.2 |
| 20260508071819 | 18 | 58 | 9.7 | 19.3 | 0.00 | 0.00 | 0.00 | 79 | 1007.3 |
| 20260508071338 | 18 | 48 | 11.3 | 19.3 | 0.00 | 0.00 | 0.00 | 78 | 1007.3 |
| 20260508070816 | 18 | 94 | 6.4 | 24.1 | 0.00 | 0.00 | 0.00 | 77 | 1007.2 |
| 20260508070313 | 18 | 65 | 6.4 | 24.1 | 0.00 | 0.00 | 0.00 | 76 | 1007.1 |
| 20260508065833 | 18 | 49 | 8.0 | 17.7 | 0.00 | 0.00 | 0.00 | 75 | 1007.3 |
| 20260508065331 | 18 | 65 | 6.4 | 24.1 | 0.00 | 0.00 | 0.00 | 75 | 1007.0 |
| 20260508064812 | 18 | 49 | 9.7 | 24.1 | 0.00 | 0.00 | 0.00 | 75 | 1006.8 |
| 20260508064333 | 19 | 23 | 11.3 | 22.5 | 0.00 | 0.00 | 0.00 | 75 | 1006.6 |
| 20260508063831 | 19 | 68 | 8.0 | 16.1 | 0.00 | 0.00 | 0.00 | 74 | 1006.7 |
| 20260508063328 | 20 | 75 | 6.4 | 17.7 | 0.00 | 0.00 | 0.00 | 73 | 1006.8 |
| 20260508062827 | 20 | 347 | 9.7 | 17.7 | 0.00 | 0.00 | 0.00 | 71 | 1006.9 |
| 20260508062345 | 20 | 339 | 8.0 | 27.4 | 0.00 | 0.00 | 0.00 | 69 | 1006.7 |
| 20260508061821 | 20 | 17 | 9.7 | 27.4 | 0.00 | 0.00 | 0.00 | 69 | 1006.6 |
| 20260508061340 | 20 | 40 | 12.9 | 25.7 | 0.00 | 0.00 | 0.00 | 69 | 1006.5 |
| 20260508060817 | 21 | 353 | 12.9 | 25.7 | 0.00 | 0.00 | 0.00 | 68 | 1006.4 |
| 20260508060316 | 21 | 38 | 9.7 | 20.9 | 0.00 | 0.00 | 0.00 | 67 | 1006.4 |
| 20260508055815 | 21 | 84 | 11.3 | 29.0 | 0.00 | 0.00 | 0.00 | 66 | 1006.5 |
| 20260508055313 | 21 | 15 | 9.7 | 29.0 | 0.00 | 0.00 | 0.00 | 67 | 1006.1 |
| 20260508054832 | 21 | 53 | 12.9 | 27.4 | 0.00 | 0.00 | 0.00 | 67 | 1006.3 |
| 20260508054331 | 21 | 153 | 11.3 | 30.6 | 0.00 | 0.00 | 0.00 | 67 | 1006.4 |
| 20260508053828 | 21 | 32 | 14.5 | 30.6 | 0.00 | 0.00 | 0.00 | 66 | 1006.8 |
| 20260508053326 | 21 | 42 | 17.7 | 27.4 | 0.00 | 0.00 | 0.00 | 66 | 1006.8 |
| 20260508052825 | 21 | 41 | 11.3 | 22.5 | 0.00 | 0.00 | 0.00 | 67 | 1007.0 |
| 20260508052323 | 21 | 42 | 9.7 | 22.5 | 0.00 | 0.00 | 0.00 | 67 | 1007.1 |
| 20260508051822 | 21 | 117 | 8.0 | 17.7 | 0.00 | 0.00 | 0.00 | 67 | 1007.2 |
| 20260508051321 | 21 | 51 | 9.7 | 25.7 | 0.00 | 0.00 | 0.00 | 66 | 1007.1 |
| 20260508050824 | 21 | 106 | 6.4 | 25.7 | 0.00 | 0.00 | 0.00 | 66 | 1007.0 |
| 20260508050323 | 21 | 74 | 8.0 | 29.0 | 0.00 | 0.00 | 0.00 | 66 | 1007.0 |
| 20260508045822 | 21 | 66 | 9.7 | 29.0 | 0.00 | 0.00 | 0.00 | 66 | 1006.9 |
| 20260508045321 | 21 | 49 | 14.5 | 27.4 | 0.00 | 0.00 | 0.00 | 65 | 1006.9 |
| 20260508044820 | 22 | 105 | 8.0 | 29.0 | 0.00 | 0.00 | 0.00 | 64 | 1007.0 |
| 20260508044319 | 22 | 250 | 11.3 | 29.0 | 0.00 | 0.00 | 0.00 | 64 | 1007.0 |
| 20260508043817 | 22 | 23 | 11.3 | 20.9 | 0.00 | 0.00 | 0.00 | 62 | 1007.3 |
| 20260508043316 | 23 | 13 | 8.0 | 22.5 | 0.00 | 0.00 | 0.00 | 63 | 1007.1 |
| 20260508042813 | 23 | 150 | 9.7 | 22.5 | 0.00 | 0.00 | 0.00 | 61 | 1007.2 |
| 20260508042353 | 23 | 83 | 8.0 | 19.3 | 0.00 | 0.00 | 0.00 | 61 | 1007.1 |
| 20260508041829 | 23 | 342 | 8.0 | 16.1 | 0.00 | 0.00 | 0.00 | 61 | 1007.1 |
| 20260508041327 | 23 | 298 | 6.4 | 14.5 | 0.00 | 0.00 | 0.00 | 61 | 1007.1 |
| 20260508040824 | 23 | 41 | 6.4 | 22.5 | 0.00 | 0.00 | 0.00 | 61 | 1007.3 |
| 20260508040322 | 23 | 33 | 9.7 | 22.5 | 0.00 | 0.00 | 0.00 | 62 | 1007.2 |
| 20260508035820 | 23 | 56 | 9.7 | 19.3 | 0.00 | 0.00 | 0.00 | 61 | 1007.4 |
| 20260508035318 | 23 | 53 | 8.0 | 19.3 | 0.00 | 0.00 | 0.00 | 61 | 1007.5 |
| 20260508034816 | 23 | 48 | 6.4 | 19.3 | 0.00 | 0.00 | 0.00 | 62 | 1007.5 |
| 20260508034314 | 23 | 49 | 6.4 | 19.3 | 0.00 | 0.00 | 0.00 | 62 | 1007.8 |
| 20260508033813 | 23 | 59 | 8.0 | 20.9 | 0.00 | 0.00 | 0.00 | 62 | 1007.8 |
| 20260508033312 | 23 | 20 | 11.3 | 20.9 | 0.00 | 0.00 | 0.00 | 62 | 1007.8 |
| 20260508032814 | 22 | 28 | 8.0 | 17.7 | 0.00 | 0.00 | 0.00 | 62 | 1007.8 |
| 20260508032333 | 22 | 60 | 1.6 | 9.7 | 0.00 | 0.00 | 0.00 | 62 | 1007.9 |
| 20260508031830 | 21 | 58 | 1.6 | 9.7 | 0.00 | 0.00 | 0.00 | 63 | 1008.2 |
| 20260508031329 | 21 | 43 | 1.6 | 6.4 | 0.00 | 0.00 | 0.00 | 64 | 1008.1 |
| 20260508030848 | 21 | 56 | 0.0 | 6.4 | 0.00 | 0.00 | 0.00 | 65 | 1008.0 |
| 20260508030325 | 21 | 53 | 0.0 | 6.4 | 0.00 | 0.00 | 0.00 | 66 | 1008.2 |
| 20260508025824 | 21 | 39 | 1.6 | 14.5 | 0.00 | 0.00 | 0.00 | 65 | 1008.6 |
| 20260508025322 | 21 | 45 | 3.2 | 14.5 | 0.00 | 0.00 | 0.00 | 65 | 1008.6 |
| 20260508024819 | 21 | 59 | 4.8 | 9.7 | 0.00 | 0.00 | 0.00 | 64 | 1008.5 |
| 20260508024317 | 22 | 328 | 1.6 | 6.4 | 0.00 | 0.00 | 0.00 | 64 | 1008.5 |
| 20260508023814 | 22 | 316 | 3.2 | 6.4 | 0.00 | 0.00 | 0.00 | 63 | 1008.6 |
| 20260508023333 | 22 | 48 | 1.6 | 11.3 | 0.00 | 0.00 | 0.00 | 63 | 1008.7 |
| 20260508022852 | 22 | 78 | 6.4 | 11.3 | 0.00 | 0.00 | 0.00 | 63 | 1008.6 |
| 20260508022328 | 22 | 27 | 0.0 | 9.7 | 0.00 | 0.00 | 0.00 | 65 | 1008.6 |
| 20260508021827 | 21 | 340 | 1.6 | 9.7 | 0.00 | 0.00 | 0.00 | 65 | 1008.7 |
| 20260508021347 | 21 | 216 | 0.0 | 6.4 | 0.00 | 0.00 | 0.00 | 68 | 1008.9 |
| 20260508020824 | 21 | 237 | 3.2 | 6.4 | 0.00 | 0.00 | 0.00 | 67 | 1009.0 |
| 20260508020321 | 20 | 46 | 1.6 | 8.0 | 0.00 | 0.00 | 0.00 | 69 | 1009.1 |
| 20260508015821 | 20 | 20 | 3.2 | 8.0 | 0.00 | 0.00 | 0.00 | 69 | 1009.0 |
| 20260508015320 | 20 | 39 | 3.2 | 11.3 | 0.00 | 0.00 | 0.00 | 69 | 1009.0 |
| 20260508014839 | 20 | 58 | 4.8 | 11.3 | 0.00 | 0.00 | 0.00 | 69 | 1009.2 |
| 20260508014317 | 20 | 32 | 3.2 | 11.3 | 0.00 | 0.00 | 0.00 | 69 | 1009.2 |
| 20260508013814 | 20 | 89 | 4.8 | 11.3 | 0.00 | 0.00 | 0.00 | 69 | 1009.3 |
| 20260508013332 | 20 | 83 | 1.6 | 3.2 | 0.00 | 0.00 | 0.00 | 69 | 1009.6 |
| 20260508012851 | 19 | 147 | 0.0 | 6.4 | 0.00 | 0.00 | 0.00 | 71 | 1009.8 |
| 20260508012351 | 19 | 66 | 0.0 | 4.8 | 0.00 | 0.00 | 0.00 | 71 | 1010.0 |
| 20260508011827 | 18 | 342 | 1.6 | 8.0 | 0.00 | 0.00 | 0.00 | 71 | 1010.1 |
| 20260508011329 | 19 | 20 | 4.8 | 8.0 | 0.00 | 0.00 | 0.00 | 69 | 1010.1 |
| 20260508010825 | 19 | 39 | 1.6 | 3.2 | 0.00 | 0.00 | 0.00 | 70 | 1010.1 |
| 20260508010324 | 19 | 320 | 0.0 | 1.6 | 0.00 | 0.00 | 0.00 | 70 | 1010.2 |
| 20260508005822 | 18 | 255 | 0.0 | 1.6 | 0.00 | 0.00 | 0.00 | 70 | 1010.1 |
| 20260508005322 | 18 | 252 | 0.0 | 4.8 | 0.00 | 0.00 | 0.00 | 72 | 1010.1 |
| 20260508004820 | 18 | 150 | 0.0 | 4.8 | 0.00 | 0.00 | 0.00 | 73 | 1010.2 |
| 20260508004340 | 18 | 34 | 1.6 | 3.2 | 0.00 | 0.00 | 0.00 | 74 | 1010.1 |
| 20260508003816 | 18 | 311 | 1.6 | 3.2 | 0.00 | 0.00 | 0.00 | 73 | 1010.0 |
| 20260508003335 | 18 | 6 | 1.6 | 3.2 | 0.00 | 0.00 | 0.00 | 73 | 1010.2 |
| 20260508002832 | 18 | 205 | 0.0 | 3.2 | 0.00 | 0.00 | 0.00 | 73 | 1010.3 |
| 20260508002329 | 18 | 190 | 1.6 | 3.2 | 0.00 | 0.00 | 0.00 | 73 | 1010.3 |
| 20260508001827 | 18 | 239 | 0.0 | 4.8 | 0.00 | 0.00 | 0.00 | 74 | 1010.3 |
| 20260508001326 | 17 | 222 | 1.6 | 4.8 | 0.00 | 0.00 | 0.00 | 74 | 1010.3 |
| 20260508000825 | 17 | 221 | 0.0 | 4.8 | 0.00 | 0.00 | 0.00 | 75 | 1010.3 |
| 20260508000323 | 17 | 225 | 0.0 | 4.8 | 0.00 | 0.00 | 0.00 | 75 | 1010.4 |
| 20260507235821 | 17 | 234 | 0.0 | 4.8 | 0.00 | 0.00 | 0.00 | 76 | 1010.5 |
| 20260507235340 | 17 | 226 | 1.6 | 4.8 | 0.00 | 0.00 | 0.00 | 76 | 1010.7 |
| 20260507234817 | 17 | 204 | 0.0 | 1.6 | 0.00 | 0.00 | 0.00 | 75 | 1010.8 |
| 20260507234317 | 17 | 210 | 0.0 | 1.6 | 0.00 | 0.00 | 0.00 | 76 | 1010.7 |
| 20260507233815 | 17 | 213 | 0.0 | 1.6 | 0.00 | 0.00 | 0.00 | 77 | 1010.8 |
| 20260507233313 | 17 | 255 | 1.6 | 1.6 | 0.00 | 0.00 | 0.00 | 77 | 1011.1 |
| 20260507232854 | 17 | 257 | 0.0 | 1.6 | 0.00 | 0.00 | 0.00 | 77 | 1011.1 |
| 20260507232333 | 17 | 240 | 0.0 | 1.6 | 0.00 | 0.00 | 0.00 | 77 | 1011.2 |
| 20260507231830 | 17 | 233 | 0.0 | 1.6 | 0.00 | 0.00 | 0.00 | 78 | 1011.3 |
| 20260507231327 | 16 | 233 | 0.0 | 6.4 | 0.00 | 0.00 | 0.00 | 79 | 1011.3 |
| 20260507230825 | 16 | 165 | 1.6 | 6.4 | 0.00 | 0.00 | 0.00 | 78 | 1011.3 |
| 20260507230323 | 16 | 244 | 0.0 | 3.2 | 0.00 | 0.00 | 0.00 | 79 | 1011.1 |
| 20260507225826 | 16 | 271 | 1.6 | 8.0 | 0.00 | 0.00 | 0.00 | 80 | 1011.1 |
| 20260507225324 | 16 | 42 | 3.2 | 8.0 | 0.00 | 0.00 | 0.00 | 79 | 1011.2 |
| 20260507224822 | 16 | 61 | 0.0 | 4.8 | 0.00 | 0.00 | 0.00 | 81 | 1011.4 |
| 20260507224321 | 15 | 47 | 1.6 | 4.8 | 0.00 | 0.00 | 0.00 | 82 | 1011.4 |
| 20260507223821 | 15 | 46 | 0.0 | 3.2 | 0.00 | 0.00 | 0.00 | 83 | 1011.6 |
| 20260507223320 | 15 | 328 | 0.0 | 4.8 | 0.00 | 0.00 | 0.00 | 83 | 1011.6 |
| 20260507222324 | 15 | 68 | 3.2 | 6.4 | 0.00 | 0.00 | 0.00 | 83 | 1011.7 |
| 20260507221822 | 15 | 25 | 0.0 | 4.8 | 0.00 | 0.00 | 0.00 | 83 | 1011.8 |
| 20260507221319 | 15 | 21 | 0.0 | 1.6 | 0.00 | 0.00 | 0.00 | 84 | 1011.8 |
| 20260507220817 | 15 | 19 | 0.0 | 1.6 | 0.00 | 0.00 | 0.00 | 84 | 1011.8 |
| 20260507220315 | 15 | 346 | 0.0 | 1.6 | 0.00 | 0.00 | 0.00 | 84 | 1011.9 |
| 20260507215814 | 15 | 220 | 0.0 | 0.0 | 0.00 | 0.00 | 0.00 | 84 | 1011.7 |
| 20260507215313 | 14 | 44 | 0.0 | 0.0 | 0.00 | 0.00 | 0.00 | 84 | 1011.7 |
| 20260507214853 | 14 | 45 | 0.0 | 0.0 | 0.00 | 0.00 | 0.00 | 84 | 1011.7 |
| 20260507214330 | 14 | 44 | 0.0 | 0.0 | 0.00 | 0.00 | 0.00 | 85 | 1011.6 |
| 20260507213828 | 14 | 44 | 0.0 | 0.0 | 0.00 | 0.00 | 0.00 | 85 | 1011.8 |
| 20260507213330 | 14 | 44 | 0.0 | 0.0 | 0.00 | 0.00 | 0.00 | 86 | 1011.9 |
| 20260507212827 | 13 | 44 | 0.0 | 0.0 | 0.00 | 0.00 | 0.00 | 86 | 1012.0 |
| 20260507212346 | 13 | 45 | 0.0 | 0.0 | 0.00 | 0.00 | 0.00 | 86 | 1012.1 |
| 20260507211824 | 13 | 44 | 0.0 | 0.0 | 0.00 | 0.00 | 0.00 | 87 | 1012.0 |
| 20260507211322 | 13 | 44 | 0.0 | 0.0 | 0.00 | 0.00 | 0.00 | 87 | 1011.9 |
| 20260507210821 | 13 | 44 | 0.0 | 0.0 | 0.00 | 0.00 | 0.00 | 87 | 1012.0 |